Location: Joffre
(52.3362°N, 113.5373°W)
Time: 12:41:04
(UTC+00:00)

Envisat - Pass Details

Date: 05 December 2021
Orbit: 764 x 766 km, 98.2° (Epoch: 23 January)

Event Time Altitude Azimuth Distance (km) Brightness Sun altitude
Rises 01:12:06 0° 218° (SW) 3,225 7.2 -15.7°
Reaches altitude 10° 01:15:33 10° 243° (WSW) 2,305 6.8 -16.2°
Maximum altitude 01:18:13 14° 275° (W) 2,029 6.2 -16.6°
Drops below altitude 10° 01:20:53 10° 307° (NW) 2,314 6.0 -17.0°
Sets 01:24:23 0° 332° (NNW) 3,247 6.4 -17.5°
